1485198000.87,23727,10.88,73514.5,-7.97,-41.03,-41.17,0,*5F
1485198002.11,23728,10.88,73514.5,-7.95,-40.91,-40.91,0,*57
1485198003.36,23729,10.88,73514.5,-7.95,-40.79,-41.11,0,*59
1485198004.62,23730,10.88,73514.3,-7.95,-40.79,-40.91,0,*58
1485198005.86,23731,10.88,73514.0,-7.95,-40.91,-41.11,0,*56
1485198007.1,23732,10.88,73514.5,-7.95,-40.91,-41.11,0,*55
1485198008.36,23733,10.88,73512.0,-7.95,-40.73,-40.85,0,*54
1485198009.59,23734,10.88,73514.3,-7.97,-40.65,-40.85,0,*56
1485198010.87,23735,10.88,73514.3,-7.95,-40.79,-40.97,0,*5B
1485198012.11,23736,10.88,73512.3,-7.97,-40.97,-41.29,0,*5E
1485198013.34,23737,10.88,73514.8,-7.95,-41.17,-41.41,0,*5A
1485198014.58,23738,10.88,73512.0,-7.97,-41.23,-41.41,0,*50
1485198015.82,23739,10.88,73512.3,-7.95,-40.91,-41.11,0,*5E
1485198017.08,23740,10.88,73514.5,-7.95,-40.91,-40.97,0,*5F
1485198018.32,23741,10.88,73514.8,-7.95,-40.91,-41.11,0,*51
1485198019.58,23742,10.88,73514.5,-7.95,-40.79,-41.11,0,*54
1485198020.86,23743,10.88,73512.0,-7.95,-40.97,-41.23,0,*54
1485198022.14,23744,10.88,73512.5,-7.95,-40.97,-41.35,0,*54
1485198023.41,23745,10.88,73510.5,-7.95,-41.23,-41.41,0,*58
1485198024.66,23746,10.88,73510.3,-7.95,-41.11,-41.35,0,*59
1485198025.95,23747,10.88,73514.8,-7.95,-40.97,-41.23,0,*50
1485198027.21,23748,10.88,73514.8,-7.95,-40.79,-40.91,0,*57
1485198028.49,23749,10.88,73512.8,-7.95,-40.97,-41.23,0,*5E
1485198029.75,23750,10.81,73508.3,-7.95,-40.91,-41.23,0,*50
1485198031.01,23751,10.88,73514.8,-7.95,-41.11,-41.35,0,*5F
1485198032.24,23752,10.88,73512.8,-7.95,-41.17,-41.41,0,*59
1485198033.45,23753,10.88,73512.8,-7.97,-41.17,-41.29,0,*54
1485198034.68,23754,10.81,73510.3,-7.97,-40.85,-41.17,0,*54
1485198035.92,23755,10.88,73510.8,-7.97,-40.85,-41.17,0,*55
1485198037.2,23756,10.88,73510.3,-7.95,-40.97,-41.23,0,*50
1485198038.41,23757,10.88,73510.5,-7.97,-41.17,-41.41,0,*5E
1485198039.62,23758,10.88,73512.8,-7.97,-41.03,-41.29,0,*5A
1485198040.83,23759,10.88,73514.3,-7.97,-41.17,-41.41,0,*50
1485198042.09,23760,10.88,73514.0,-7.95,-41.11,-41.35,0,*5D
1485198043.3,23761,10.88,73512.0,-7.97,-41.17,-41.41,0,*5B
1485198044.51,23762,10.88,73512.0,-7.97,-41.03,-41.41,0,*5D
1485198045.75,23763,10.88,73514.3,-7.97,-40.97,-41.17,0,*53
1485198046.99,23764,10.88,73516.5,-7.97,-40.97,-41.03,0,*51
1485198048.22,23765,10.88,73512.0,-7.97,-40.85,-41.29,0,*5B
1485198049.46,23766,10.88,73512.3,-7.97,-40.97,-41.03,0,*53
1485198050.67,23767,10.88,73514.5,-7.97,-41.03,-41.29,0,*56
1485198051.94,23768,10.88,73514.8,-7.97,-40.97,-40.97,0,*51
1485198053.2,23769,10.88,73518.3,-7.95,-40.79,-40.91,0,*54
1485198054.46,23770,10.88,73514.5,-7.97,-40.97,-40.97,0,*58
1485198055.7,23771,10.88,73510.5,-7.97,-40.85,-41.17,0,*53
1485198056.96,23772,10.88,73516.8,-7.97,-40.97,-40.97,0,*5A
1485198058.2,23773,10.88,73514.8,-7.97,-40.79,-41.03,0,*57
1485198059.46,23774,10.88,73512.5,-7.97,-40.85,-40.97,0,*5F
1485198060.75,23775,10.88,73514.8,-7.95,-40.79,-40.97,0,*5F
1485198062.01,23776,10.88,73514.0,-7.97,-40.85,-40.97,0,*5D
1485198063.28,23777,10.88,73516.5,-7.97,-40.85,-40.97,0,*5C
1485198064.52,23778,10.88,73514.3,-7.95,-40.91,-41.11,0,*5B
1485198065.79,23779,10.88,73512.0,-7.95,-40.91,-40.97,0,*55
1485198067.03,23780,10.88,73512.0,-7.95,-40.91,-41.11,0,*5C
1485198068.26,23781,10.88,73512.5,-7.97,-40.85,-41.17,0,*5C
1485198069.52,23782,10.88,73512.0,-7.97,-40.79,-40.97,0,*55
1485198070.8,23783,10.88,73508.5,-7.95,-40.79,-40.97,0,*56
1485198072.06,23784,10.88,73512.3,-7.95,-40.97,-41.11,0,*5E
1485198073.3,23785,10.88,73512.3,-7.97,-40.97,-41.17,0,*5B
1485198074.58,23786,10.88,73510.3,-7.95,-40.79,-40.97,0,*53
1485198075.83,23787,10.88,73514.0,-7.97,-40.91,-40.97,0,*56
1485198077.1,23788,10.88,73512.8,-7.95,-40.91,-40.97,0,*5B
1485198078.35,23789,10.88,73516.8,-7.95,-40.79,-41.11,0,*53
1485198079.61,23790,10.88,73514.0,-7.95,-40.91,-41.23,0,*5C
1485198080.85,23791,10.88,73512.8,-7.97,-40.85,-41.03,0,*58
1485198082.07,23792,10.88,73514.0,-7.97,-41.03,-41.29,0,*5C
1485198083.27,23793,10.88,73512.0,-7.97,-41.17,-41.49,0,*5E
1485198084.5,23794,10.88,73512.5,-7.95,-41.11,-41.41,0,*55
1485198085.71,23795,10.88,73512.8,-7.97,-41.17,-41.49,0,*58
1485198086.97,23796,10.88,73516.0,-7.95,-40.97,-41.11,0,*5D
1485198088.17,23797,10.88,73518.3,-7.97,-41.17,-41.41,0,*52
1485198089.38,23798,10.88,73516.5,-7.97,-41.17,-41.41,0,*5D
1485198090.59,23799,10.88,73518.3,-7.97,-41.17,-41.41,0,*5C
1485198091.79,23800,10.88,73516.3,-7.97,-41.29,-41.49,0,*56
1485198093.0,23801,10.88,73518.0,-7.97,-41.29,-41.41,0,*5F
1485198094.24,23802,10.88,73516.3,-7.97,-41.23,-41.17,0,*55
1485198095.45,23803,10.88,73516.8,-7.97,-41.17,-41.29,0,*5E
1485198096.68,23804,10.88,73516.0,-7.97,-41.23,-41.61,0,*52
1485198097.92,23805,10.88,73516.3,-7.97,-41.23,-41.49,0,*59
1485198099.12,23806,10.88,73516.3,-7.97,-41.29,-41.49,0,*50
1485198100.35,23807,10.88,73516.5,-7.97,-41.23,-41.49,0,*5B
1485198101.59,23808,10.88,73516.5,-7.97,-41.23,-41.41,0,*5C
1485198102.86,23809,10.88,73516.8,-7.99,-41.23,-41.49,0,*5B
1485198104.12,23810,10.88,73516.3,-7.99,-41.11,-41.23,0,*5E
1485198105.38,23811,10.81,73514.0,-7.99,-41.11,-41.23,0,*5F
1485198106.68,23812,10.88,73516.8,-7.99,-41.23,-41.35,0,*5A
1485198107.97,23813,10.81,73514.3,-7.99,-41.35,-41.55,0,*5A
1485198109.21,23814,10.88,73514.8,-7.99,-41.11,-41.49,0,*56
1485198110.47,23815,10.88,73512.3,-7.99,-41.11,-41.35,0,*5C
1485198111.73,23816,10.88,73512.0,-7.99,-41.11,-41.35,0,*5F
1485198113.0,23817,10.81,73514.8,-8.01,-41.23,-41.23,0,*56
1485198114.24,23818,10.88,73516.5,-8.01,-41.03,-41.23,0,*5B
1485198115.49,23819,10.88,73514.0,-8.01,-41.03,-41.23,0,*5A
1485198116.73,23820,10.88,73514.3,-8.01,-41.03,-41.23,0,*50
1485198118.0,23821,10.88,73514.5,-7.99,-41.03,-41.23,0,*5F
1485198119.22,23822,10.88,73512.3,-8.01,-40.91,-41.11,0,*59
1485198120.44,23823,10.88,73514.0,-8.01,-40.91,-41.03,0,*5B
1485198121.68,23824,10.88,73512.3,-8.01,-41.03,-41.23,0,*54
1485198122.93,23825,10.88,73516.3,-7.99,-40.91,-41.11,0,*50
1485198124.17,23826,10.81,73512.3,-7.99,-41.03,-41.11,0,*59
1485198125.39,23827,10.88,73512.5,-8.01,-40.91,-41.11,0,*5C
1485198126.61,23828,10.88,73516.0,-8.01,-40.91,-41.03,0,*50
1485198127.83,23829,10.88,73514.0,-8.01,-40.91,-41.03,0,*51
1485198129.05,23830,10.88,73518.3,-8.01,-41.03,-41.11,0,*50
1485198130.3,23831,10.88,73518.3,-7.99,-41.03,-41.11,0,*5F
1485198131.55,23832,10.88,73512.3,-7.99,-40.91,-41.03,0,*55
1485198132.76,23833,10.88,73518.3,-8.01,-40.91,-41.11,0,*59
1485198134.01,23834,10.88,73514.0,-7.99,-40.91,-41.11,0,*50
1485198135.28,23835,10.88,73520.3,-8.01,-41.23,-41.55,0,*57
1485198136.55,23836,10.88,73518.3,-7.99,-41.03,-41.23,0,*59
1485198137.77,23837,10.88,73520.3,-8.01,-40.91,-41.03,0,*5E
1485198138.99,23838,10.88,73518.3,-8.01,-40.91,-41.11,0,*52
1485198140.25,23839,10.88,73516.5,-7.99,-41.11,-41.35,0,*52
1485198141.47,23840,10.81,73512.0,-8.01,-40.91,-41.11,0,*5D
1485198142.74,23841,10.88,73516.5,-7.99,-41.03,-41.23,0,*59
1485198143.96,23842,10.81,73514.0,-8.01,-40.91,-41.11,0,*5F
1485198145.2,23843,10.81,73516.5,-7.99,-41.03,-41.11,0,*5A
1485198146.47,23844,10.88,73518.3,-7.99,-41.03,-41.23,0,*5C
1485198147.71,23845,10.88,73516.8,-8.01,-41.11,-41.35,0,*57
1485198148.95,23846,10.88,73516.5,-8.01,-41.11,-41.35,0,*54
1485198150.18,23847,10.88,73516.8,-7.99,-41.11,-41.49,0,*50
1485198151.39,23848,10.88,73514.8,-8.01,-41.11,-41.49,0,*51
1485198152.62,23849,10.81,73512.8,-8.01,-41.23,-41.49,0,*51
1485198153.86,23850,10.88,73516.8,-8.01,-41.23,-41.49,0,*59
1485198155.06,23851,10.81,73512.5,-8.01,-41.29,-41.49,0,*52
1485198156.31,23852,10.81,73514.8,-8.01,-41.03,-41.23,0,*55
1485198157.54,23853,10.88,73518.8,-8.03,-41.17,-41.41,0,*57
1485198158.8,23854,10.88,73516.3,-8.03,-41.35,-41.61,0,*52
1485198160.06,23855,10.88,73518.5,-8.03,-41.35,-41.61,0,*53
1485198161.27,23856,10.88,73514.5,-8.05,-41.11,-41.29,0,*5C
1485198162.51,23857,10.88,73512.3,-8.03,-41.17,-41.41,0,*53
1485198163.74,23858,10.88,73514.3,-8.03,-41.11,-41.29,0,*54
1485198165.0,23859,10.88,73514.3,-8.03,-40.97,-41.17,0,*57
1485198166.27,23860,10.81,73512.3,-8.03,-40.97,-41.11,0,*5B
1485198167.5,23861,10.88,73514.3,-8.03,-41.11,-41.29,0,*5E
1485198168.74,23862,10.88,73514.3,-8.01,-41.11,-41.23,0,*55
1485198169.97,23863,10.88,73514.8,-8.03,-41.17,-41.29,0,*5A
1485198171.23,23864,10.81,73514.8,-8.03,-40.97,-41.17,0,*59
1485198172.47,23865,10.88,73514.0,-8.03,-41.17,-41.41,0,*52
1485198173.7,23866,10.88,73512.3,-8.03,-41.17,-41.29,0,*5F
1485198174.96,23867,10.81,73510.8,-8.03,-40.97,-41.17,0,*5A
1485198176.22,23868,10.88,73514.3,-8.03,-40.97,-41.11,0,*53
1485198177.43,23869,10.81,73514.0,-8.05,-41.11,-41.17,0,*5D
1485198178.67,23870,10.88,73512.5,-8.05,-40.97,-41.11,0,*5C
1485198179.9,23871,10.81,73512.0,-8.03,-41.11,-41.29,0,*5F
1485198181.13,23872,10.88,73518.5,-8.03,-41.29,-41.41,0,*59
1485198182.34,23873,10.81,73514.0,-8.05,-41.17,-41.29,0,*5D
1485198183.55,23874,10.81,73512.0,-8.05,-41.11,-41.29,0,*5C
1485198184.78,23875,10.81,73512.3,-8.03,-41.11,-41.29,0,*5B
1485198186.02,23876,10.88,73512.8,-8.05,-40.97,-41.41,0,*5F
1485198187.25,23877,10.88,73514.5,-8.03,-41.29,-41.41,0,*5C
1485198188.46,23878,10.88,73514.3,-8.05,-41.17,-41.41,0,*58
1485198189.69,23879,10.88,73514.8,-8.05,-40.97,-41.29,0,*5E
1485198190.93,23880,10.81,73514.5,-8.05,-40.97,-41.17,0,*55
1485198192.16,23881,10.81,73512.5,-8.05,-40.97,-41.17,0,*54
1485198193.39,23882,10.81,73514.0,-8.05,-40.97,-41.29,0,*5A
1485198194.63,23883,10.81,73510.5,-8.05,-40.97,-41.11,0,*50
1485198195.84,23884,10.81,73514.5,-8.05,-41.11,-41.17,0,*5E
1485198197.07,23885,10.88,73514.3,-8.03,-41.29,-41.41,0,*51
1485198198.29,23886,10.81,73512.0,-8.05,-40.91,-41.11,0,*53
1485198199.53,23887,10.81,73514.5,-8.03,-40.91,-41.11,0,*54
1485198200.74,23888,10.81,73512.5,-8.05,-40.91,-41.17,0,*5B
1485198201.96,23889,10.81,73512.5,-8.05,-40.91,-41.17,0,*5A
1485198203.19,23890,10.81,73514.8,-8.05,-40.97,-41.11,0,*52
1485198204.43,23891,10.88,73512.3,-8.05,-40.97,-41.11,0,*53
1485198205.66,23892,10.81,73514.8,-8.03,-41.11,-41.17,0,*5F
1485198206.89,23893,10.81,73510.8,-8.05,-40.97,-41.29,0,*5A
1485198208.13,23894,10.88,73512.0,-8.05,-40.97,-41.17,0,*50
1485198209.36,23895,10.88,73516.8,-8.05,-40.97,-41.29,0,*5C
1485198210.59,23896,10.88,73514.8,-8.05,-41.29,-41.55,0,*50
1485198211.8,23897,10.81,73512.3,-8.05,-41.11,-41.29,0,*51
1485198213.04,23898,10.88,73516.8,-8.05,-40.97,-41.11,0,*5A
1485198214.25,23899,10.88,73516.8,-8.05,-40.91,-41.11,0,*5D
1485198215.51,23900,10.88,73516.0,-8.05,-40.79,-40.97,0,*55
1485198216.75,23901,10.88,73516.5,-8.05,-40.97,-41.17,0,*5D
1485198217.98,23902,10.81,73512.5,-8.05,-40.97,-41.11,0,*58
1485198219.23,23903,10.81,73514.3,-8.05,-40.91,-40.97,0,*50
1485198220.44,23904,10.81,73512.0,-8.05,-40.91,-41.17,0,*5E
1485198221.68,23905,10.88,73514.5,-8.05,-40.97,-41.17,0,*59
1485198222.89,23906,10.81,73512.5,-8.05,-41.17,-41.41,0,*50
1485198224.12,23907,10.81,73512.8,-8.07,-41.17,-41.41,0,*53
1485198225.35,23908,10.81,73514.3,-8.07,-41.29,-41.41,0,*51
1485198226.59,23909,10.88,73514.8,-8.07,-41.41,-41.61,0,*5C
1485198227.85,23910,10.88,73514.5,-8.07,-41.17,-41.55,0,*50
1485198229.09,23911,10.88,73514.0,-8.11,-41.03,-41.17,0,*55
1485198230.35,23912,10.81,73512.8,-8.07,-40.79,-40.91,0,*52
1485198231.61,23913,10.81,73512.5,-8.07,-40.79,-40.91,0,*53
1485198232.86,23914,10.88,73512.0,-8.07,-40.91,-41.11,0,*5B
1485198234.12,23915,10.81,73512.8,-8.07,-40.97,-41.11,0,*5C
1485198235.36,23916,10.81,73512.8,-8.07,-40.91,-41.11,0,*59
1485198236.6,23917,10.81,73514.3,-8.05,-40.97,-41.29,0,*57
1485198237.8,23918,10.88,73514.0,-8.05,-41.17,-41.29,0,*51
1485198239.02,23919,10.88,73514.8,-8.05,-40.91,-41.11,0,*54
1485198240.28,23920,10.81,73514.3,-8.03,-40.97,-41.11,0,*5E
1485198241.57,23921,10.81,73514.3,-8.07,-40.97,-40.97,0,*54
1485198242.84,23922,10.88,73518.0,-8.07,-40.97,-41.11,0,*58
1485198244.1,23923,10.81,73512.8,-8.07,-40.97,-41.11,0,*59
1485198245.34,23924,10.88,73516.8,-8.07,-40.91,-40.91,0,*51
1485198246.59,23925,10.81,73512.8,-8.07,-40.91,-41.11,0,*59
1485198247.83,23926,10.81,73514.3,-8.07,-40.91,-41.11,0,*5A
1485198249.07,23927,10.81,73514.5,-8.07,-40.91,-41.11,0,*5B
1485198250.31,23928,10.81,73514.3,-8.07,-40.91,-41.11,0,*54
1485198251.59,23929,10.88,73518.5,-8.07,-40.91,-40.97,0,*5A
1485198252.83,23930,10.88,73516.3,-8.07,-40.91,-40.91,0,*54
1485198254.08,23931,10.81,73514.0,-8.07,-40.91,-40.91,0,*55
1485198255.35,23932,10.81,73514.5,-8.07,-40.91,-40.97,0,*50
1485198256.58,23933,10.81,73514.8,-8.07,-41.11,-41.29,0,*5C
1485198257.82,23934,10.81,73512.0,-8.05,-40.97,-41.11,0,*5D
1485198259.06,23935,10.88,73516.0,-8.05,-40.97,-41.11,0,*5C
1485198260.32,23936,10.81,73516.3,-8.07,-40.97,-41.11,0,*5D
1485198261.59,23937,10.81,73516.0,-8.07,-40.91,-40.97,0,*55
1485198262.83,23938,10.81,73516.0,-8.07,-40.91,-41.11,0,*55
1485198264.09,23939,10.81,73514.3,-8.07,-40.79,-41.11,0,*52
1485198265.35,23940,10.81,73516.3,-8.07,-40.79,-40.91,0,*55
1485198266.62,23941,10.88,73516.3,-8.11,-41.17,-41.23,0,*52
1485198267.88,23942,10.81,73512.5,-8.07,-40.97,-41.17,0,*58
1485198269.12,23943,10.81,73514.5,-8.07,-40.91,-41.11,0,*59
1485198270.36,23944,10.81,73512.5,-8.07,-40.91,-41.17,0,*58
1485198271.63,23945,10.81,73514.3,-8.07,-40.91,-40.97,0,*50
1485198272.9,23946,10.81,73514.8,-8.07,-40.91,-40.97,0,*53
1485198274.14,23947,10.81,73516.0,-8.07,-40.91,-41.17,0,*5B
1485198275.4,23948,10.81,73516.5,-8.11,-41.17,-41.23,0,*5B
1485198276.64,23949,10.88,73516.5,-8.07,-41.17,-41.41,0,*59
1485198277.88,23950,10.81,73518.3,-8.07,-41.11,-41.11,0,*52
1485198279.11,23951,10.81,73518.3,-8.07,-41.11,-41.29,0,*58
1485198280.34,23952,10.81,73516.5,-8.07,-41.29,-41.41,0,*5E
1485198281.6,23953,10.81,73518.3,-8.07,-40.97,-41.29,0,*55
1485198282.84,23954,10.81,73516.0,-8.11,-41.17,-41.41,0,*52
1485198284.1,23955,10.81,73518.3,-8.07,-41.29,-41.55,0,*5C
1485198285.33,23956,10.81,73516.8,-8.07,-41.11,-41.29,0,*5F
1485198286.59,23957,10.81,73514.8,-8.11,-41.17,-41.35,0,*52
1485198287.83,23958,10.81,73516.3,-8.07,-41.11,-41.17,0,*5C
1485198289.09,23959,10.81,73512.5,-8.11,-41.17,-41.35,0,*5C
1485198290.35,23960,10.81,73516.3,-8.07,-40.97,-41.17,0,*58
1485198291.59,23961,10.81,73514.8,-8.07,-41.11,-41.29,0,*5B
1485198292.85,23962,10.81,73512.5,-8.11,-41.17,-41.35,0,*54
1485198294.08,23963,10.81,73514.8,-8.07,-41.11,-41.29,0,*59
1485198295.34,23964,10.81,73518.8,-8.07,-40.97,-41.11,0,*5A
1485198296.61,23965,10.81,73514.5,-8.07,-40.97,-41.11,0,*5B
1485198297.85,23966,10.81,73518.0,-8.11,-41.03,-41.17,0,*55
1485198299.09,23967,10.81,73516.0,-8.11,-41.03,-41.17,0,*54
1485198300.32,23968,10.81,73516.0,-8.07,-41.11,-41.41,0,*5C
1485198301.58,23969,10.81,73514.5,-8.11,-41.17,-41.23,0,*58
1485198302.87,23970,10.81,73512.5,-8.07,-40.79,-40.97,0,*50
1485198304.11,23971,10.81,73514.3,-8.07,-40.91,-41.17,0,*5E
1485198305.35,23972,10.81,73514.5,-8.07,-41.11,-41.41,0,*57
1485198306.61,23973,10.81,73514.3,-8.11,-41.03,-41.23,0,*56
1485198307.88,23974,10.81,73518.3,-8.11,-41.03,-41.23,0,*51
1485198309.12,23975,10.81,73518.8,-8.11,-41.03,-41.17,0,*57
1485198310.41,23976,10.81,73518.0,-8.11,-40.97,-41.23,0,*5F
1485198311.67,23977,10.81,73514.5,-8.11,-41.03,-41.35,0,*55
1485198312.94,23978,10.81,73518.0,-8.11,-41.03,-41.23,0,*5D
1485198314.2,23979,10.81,73518.0,-8.11,-41.17,-41.23,0,*59
1485198315.44,23980,10.81,73518.0,-8.11,-41.17,-41.17,0,*58
1485198316.72,23981,10.81,73516.0,-8.11,-40.97,-41.23,0,*57
1485198317.96,23982,10.81,73518.3,-8.11,-41.03,-41.17,0,*5F
1485198319.23,23983,10.81,73516.8,-8.11,-41.03,-41.23,0,*59
1485198320.47,23984,10.81,73518.5,-8.11,-41.17,-41.17,0,*5C
1485198321.73,23985,10.81,73516.8,-8.11,-41.17,-41.23,0,*5A
1485198322.99,23986,10.81,73516.0,-8.11,-41.03,-41.23,0,*5C
1485198324.23,23987,10.81,73518.3,-8.07,-41.11,-41.29,0,*53
1485198325.52,23988,10.81,73518.0,-8.11,-41.23,-41.35,0,*57
1485198326.78,23989,10.81,73516.8,-8.11,-41.23,-41.49,0,*5D
1485198328.04,23990,10.81,73512.5,-8.11,-41.23,-41.49,0,*55
1485198329.3,23991,10.81,73516.5,-8.11,-41.23,-41.49,0,*54
1485198330.56,23992,10.81,73516.8,-8.11,-41.23,-41.49,0,*57
1485198331.83,23993,10.81,73518.3,-8.11,-41.49,-41.67,0,*56
1485198333.07,23994,10.81,73516.8,-8.13,-41.41,-41.55,0,*5A
1485198334.31,23995,10.81,73518.5,-8.13,-41.23,-41.41,0,*5A
1485198335.54,23996,10.88,73518.3,-8.13,-41.11,-41.23,0,*5C
1485198336.77,23997,10.81,73512.8,-8.13,-41.29,-41.55,0,*57
1485198338.01,23998,10.81,73518.5,-8.13,-41.29,-41.67,0,*59
1485198339.28,23999,10.81,73516.0,-8.15,-41.49,-41.67,0,*58
1485198340.51,24000,10.81,73512.3,-8.15,-41.11,-41.29,0,*51
1485198341.72,24001,10.81,73514.8,-8.13,-41.11,-41.29,0,*56
1485198342.99,24002,10.81,73512.8,-8.13,-41.23,-41.55,0,*5F
1485198344.25,24003,10.81,73514.3,-8.15,-41.29,-41.55,0,*52
1485198345.49,24004,10.81,73518.3,-8.13,-41.23,-41.41,0,*5C
1485198346.75,24005,10.81,73512.5,-8.15,-41.11,-41.23,0,*5E
1485198348.02,24006,10.81,73512.3,-8.15,-41.23,-41.29,0,*56
1485198349.23,24007,10.81,73518.0,-8.13,-41.11,-41.41,0,*5E
1485198350.47,24008,10.81,73518.3,-8.15,-41.11,-41.29,0,*59
1485198351.73,24009,10.81,73516.5,-8.15,-41.23,-41.41,0,*57
1485198352.97,24010,10.81,73512.0,-8.15,-41.29,-41.41,0,*55
1485198354.18,24011,10.81,73518.0,-8.13,-41.11,-41.41,0,*59
1485198355.42,24012,10.81,73516.5,-8.15,-41.11,-41.11,0,*59
1485198356.68,24013,10.81,73514.3,-8.15,-41.11,-41.23,0,*59
1485198357.98,24014,10.81,73514.5,-8.15,-41.23,-41.23,0,*5F
1485198359.25,24015,10.81,73512.8,-8.15,-41.03,-41.23,0,*5C
1485198360.52,24016,10.81,73516.8,-8.15,-41.03,-41.23,0,*5F
1485198361.78,24017,10.81,73514.5,-8.15,-41.11,-41.23,0,*5D
1485198363.02,24018,10.81,73514.0,-8.15,-41.11,-41.29,0,*58
1485198364.29,24019,10.81,73514.8,-8.15,-41.23,-41.29,0,*58
1485198365.5,24020,10.81,73514.8,-8.17,-41.17,-41.17,0,*5A
1485198366.7,24021,10.81,73510.0,-8.17,-41.29,-41.49,0,*5D
1485198367.9,24022,10.81,73512.5,-8.17,-41.29,-41.49,0,*5E
1485198369.16,24023,10.81,73510.5,-8.17,-41.35,-41.81,0,*56
1485198370.39,24024,10.81,73512.5,-8.19,-41.17,-41.29,0,*5D
1485198371.6,24025,10.81,73518.3,-8.17,-41.11,-41.17,0,*59
1485198372.83,24026,10.81,73512.5,-8.17,-41.29,-41.35,0,*51
1485198374.06,24027,10.81,73512.0,-8.17,-41.29,-41.35,0,*50
1485198375.27,24028,10.81,73514.8,-8.17,-41.17,-41.49,0,*59
1485198376.53,24029,10.81,73514.3,-8.19,-41.17,-41.35,0,*5D
1485198377.76,24030,10.81,73514.8,-8.19,-41.11,-41.17,0,*53
1485198378.97,24031,10.81,73516.0,-8.17,-41.11,-41.17,0,*5C
1485198380.17,24032,10.81,73512.8,-8.17,-41.11,-41.29,0,*52
1485198381.38,24033,10.81,73512.5,-8.17,-41.11,-41.29,0,*53
1485198382.59,24034,10.81,73514.3,-8.17,-41.11,-41.11,0,*5F
1485198383.82,24035,10.81,73514.8,-8.17,-41.11,-41.35,0,*58
1485198385.03,24036,10.81,73512.3,-8.17,-41.29,-41.61,0,*51
1485198386.23,24037,10.81,73512.3,-8.17,-41.29,-41.49,0,*5A
1485198387.43,24038,10.81,73516.0,-8.17,-41.29,-41.49,0,*55
1485198388.66,24039,10.81,73518.0,-8.17,-41.29,-41.35,0,*5F
1485198389.92,24040,10.81,73514.3,-8.19,-41.17,-41.35,0,*52
1485198391.12,24041,10.81,73516.8,-8.17,-41.29,-41.29,0,*5D
1485198392.38,24042,10.81,73514.0,-8.19,-41.17,-41.35,0,*50
1485198393.64,24043,10.81,73514.8,-8.19,-41.29,-41.35,0,*5C
1485198394.9,24044,10.81,73516.8,-8.19,-41.29,-41.35,0,*5B
1485198396.15,24045,10.81,73516.0,-8.19,-41.29,-41.35,0,*5A
1485198397.38,24046,10.81,73516.5,-8.19,-41.17,-41.29,0,*59
1485198398.64,24047,10.81,73514.3,-8.19,-41.29,-41.35,0,*58
1485198399.88,24048,10.81,73512.0,-8.21,-41.17,-41.35,0,*51
1485198401.14,24049,10.81,73518.8,-8.19,-41.17,-41.35,0,*5B
1485198402.36,24050,10.81,73512.5,-8.19,-41.17,-41.49,0,*58
1485198403.6,24051,10.81,73516.8,-8.19,-41.17,-41.29,0,*5F
1485198404.81,24052,10.81,73514.5,-8.21,-41.17,-41.41,0,*59
1485198406.05,24053,10.81,73514.0,-8.21,-41.23,-41.41,0,*5F
1485198407.29,24054,10.81,73514.5,-8.21,-41.23,-41.41,0,*58
1485198408.53,24055,10.81,73516.8,-8.21,-41.03,-41.23,0,*5F
1485198409.74,24056,10.81,73516.8,-8.21,-41.17,-41.41,0,*5D
1485198411.03,24057,10.81,73518.0,-8.23,-41.35,-41.55,0,*5B
1485198412.3,24058,10.81,73518.5,-8.21,-41.35,-41.67,0,*57
1485198413.54,24059,10.81,73516.8,-8.21,-41.17,-41.35,0,*51
1485198414.81,24060,10.81,73518.8,-8.23,-41.23,-41.41,0,*5D
1485198416.07,24061,10.81,73516.3,-8.21,-41.23,-41.23,0,*5A
1485198417.34,24062,10.81,73516.3,-8.21,-41.23,-41.55,0,*58
1485198418.61,24063,10.81,73516.5,-8.23,-41.03,-41.23,0,*58
1485198419.85,24064,10.81,73518.0,-8.21,-41.03,-41.23,0,*5D
1485198421.11,24065,10.81,73516.8,-8.23,-41.17,-41.23,0,*5B
1485198422.37,24066,10.81,73516.0,-8.23,-41.17,-41.35,0,*5F
1485198423.61,24067,10.81,73516.0,-8.21,-41.17,-41.35,0,*5C
1485198424.88,24068,10.81,73516.8,-8.21,-41.35,-41.55,0,*55
1485198426.12,24069,10.81,73516.0,-8.23,-41.03,-41.17,0,*55
1485198427.41,24070,10.81,73518.5,-8.23,-41.23,-41.35,0,*5F
1485198428.67,24071,10.81,73516.3,-8.23,-41.35,-41.41,0,*5A
1485198429.91,24072,10.81,73520.8,-8.23,-41.17,-41.41,0,*59
1485198431.2,24073,10.81,73516.8,-8.23,-41.23,-41.35,0,*5C
1485198432.49,24074,10.81,73522.0,-8.23,-41.23,-41.55,0,*5D
1485198433.78,24075,10.81,73518.3,-8.23,-41.23,-41.35,0,*5A
1485198435.07,24076,10.81,73520.5,-8.23,-41.23,-41.55,0,*5F
1485198436.36,24077,10.81,73518.5,-8.23,-41.23,-41.35,0,*58
1485198437.65,24078,10.81,73518.0,-8.23,-41.23,-41.35,0,*57
1485198438.88,24079,10.81,73518.0,-8.23,-41.17,-41.41,0,*52
1485198440.12,24080,10.81,73518.3,-8.23,-41.03,-41.17,0,*52
1485198441.36,24081,10.81,73516.3,-8.21,-41.23,-41.41,0,*50
1485198442.63,24082,10.81,73520.5,-8.23,-41.23,-41.41,0,*51
1485198443.89,24083,10.81,73522.8,-8.23,-41.35,-41.41,0,*57
1485198445.1,24084,10.88,73520.3,-8.25,-41.29,-41.49,0,*53
1485198446.3,24085,10.81,73516.8,-8.25,-41.41,-41.49,0,*5C
1485198447.51,24086,10.81,73522.0,-8.25,-41.41,-41.61,0,*55
1485198448.71,24087,10.81,73518.0,-8.25,-41.29,-41.41,0,*58
1485198449.91,24088,10.81,73518.8,-8.25,-41.29,-41.49,0,*5F
1485198451.14,24089,10.81,73520.0,-8.27,-41.29,-41.61,0,*56
1485198452.4,24090,10.81,73518.0,-8.27,-41.23,-41.29,0,*58
1485198453.63,24091,10.81,73520.0,-8.27,-41.29,-41.41,0,*5D
1485198454.83,24092,10.81,73518.5,-8.25,-41.29,-41.41,0,*5C
1485198456.05,24093,10.81,73520.0,-8.27,-41.29,-41.49,0,*57
1485198457.31,24094,10.81,73518.5,-8.27,-41.23,-41.29,0,*5C
1485198458.53,24095,10.81,73520.3,-8.25,-41.03,-41.11,0,*56
1485198459.79,24096,10.81,73520.5,-8.27,-41.23,-41.41,0,*50
1485198461.02,24097,10.81,73518.3,-8.25,-41.11,-41.23,0,*56
1485198462.26,24098,10.81,73522.5,-8.27,-41.41,-41.73,0,*5B
1485198463.46,24099,10.81,73518.3,-8.25,-41.29,-41.61,0,*55
1485198464.66,24100,10.81,73520.8,-8.25,-41.29,-41.41,0,*56
1485198465.87,24101,10.81,73520.8,-8.25,-41.41,-41.49,0,*51
1485198467.1,24102,10.81,73520.8,-8.27,-41.29,-41.41,0,*56
1485198468.3,24103,10.81,73518.8,-8.25,-41.29,-41.41,0,*55
1485198469.56,24104,10.81,73520.0,-8.27,-41.23,-41.41,0,*5A
1485198470.82,24105,10.81,73520.8,-8.27,-41.23,-41.41,0,*5B
1485198472.05,24106,10.81,73520.3,-8.27,-41.29,-41.49,0,*5A
1485198473.31,24107,10.81,73522.3,-8.27,-41.23,-41.41,0,*59
1485198474.55,24108,10.81,73520.3,-8.29,-41.17,-41.35,0,*5C
1485198475.81,24109,10.81,73522.0,-8.27,-41.23,-41.29,0,*59
1485198477.07,24110,10.81,73516.0,-8.27,-41.23,-41.41,0,*5F
1485198478.31,24111,10.81,73518.0,-8.27,-40.91,-41.11,0,*53
1485198479.54,24112,10.81,73520.0,-8.25,-41.23,-41.29,0,*51
1485198480.76,24113,10.81,73520.8,-8.25,-41.03,-41.29,0,*52
1485198482.0,24114,10.81,73518.8,-8.27,-41.03,-41.11,0,*5C
1485198483.26,24115,10.81,73520.8,-8.27,-41.23,-41.41,0,*5A
1485198484.52,24116,10.81,73522.0,-8.27,-41.23,-41.41,0,*59
1485198485.74,24117,10.81,73520.3,-8.27,-41.29,-41.49,0,*5A
1485198486.97,24118,10.81,73522.8,-8.27,-41.41,-41.61,0,*51
1485198488.2,24119,10.81,73520.3,-8.29,-41.49,-41.81,0,*58
1485198489.44,24120,10.81,73518.5,-8.29,-41.49,-41.55,0,*5B
1485198490.67,24121,10.81,73518.5,-8.27,-41.41,-41.73,0,*58
1485198491.93,24122,10.81,73520.8,-8.29,-41.55,-41.93,0,*5E
1485198493.17,24123,10.81,73520.5,-8.29,-41.49,-41.67,0,*59
1485198494.43,24124,10.81,73522.0,-8.33,-41.55,-41.81,0,*50
1485198495.69,24125,10.81,73518.3,-8.33,-41.35,-41.67,0,*5F
1485198496.93,24126,10.81,73518.5,-8.29,-41.17,-41.35,0,*50